Regional Weather Roundup
Issued by NWS

Home | Current Version | Previous Version | Text Only | Print | Product List | Glossary On
Versions: 1 2 3 4 5 6 7 8 9 10 11 12 13 14 15 16 17 18 19 20 21 22 23 24 25 26 27 28
000
ASUS44 KLIX 182313
RWRLA
LOUISIANA WEATHER ROUNDUP
NATIONAL WEATHER SERVICE NEW ORLEANS LA
600 PM CDT FRI AUG 18 2017

NOTE: "FAIR" INDICATES FEW OR NO CLOUDS BELOW 12,000 FEET WITH NO
      SIGNIFICANT WEATHER AND/OR OBSTRUCTIONS TO VISIBILITY.
      SKY/WX - SKY CONDITION AND SIGNIFICANT WEATHER.
      TMP - AIR TEMPERATURE.    DP   - DEWPOINT TEMPERATURE.
      RH  - RELATIVE HUMIDITY.  PRES - PRESSURE.
      HX  - HEAT INDEX.         WCI  - WIND CHILL INDEX.

*  THESE STATIONS ARE NOT NWS OR FAA STATIONS AND ARE NOT UNDER
   NWS QUALITY CONTROL.

LAZ040-048-061>063-065-066-069-190000-
SOUTHEAST LOUISIANA

CITY           SKY/WX    TMP DP  RH WIND       PRES   REMARKS
N.O. INTL ARPT MOSUNNY   94  72  48 NW5       29.97F HX 102
N.O. LAKEFRONT SUNNY     92  73  53 NW6       29.98F HX 100
N.O. DOWNTOWN* FAIR      95  71  45 VRB6      29.98F HX 102
RESERVE*       FAIR      95  69  42 CALM      29.98S HX 100
SLIDELL        SUNNY     91  73  55 SW6       29.97R HX  99
BATON ROUGE    MOSUNNY   92  72  51 N6        29.97S HX  99
BOOTHVILLE     SUNNY     89  77  67 SW7       29.99S HX 101
BELLE CHASSE   NOT AVBL
BOGALUSA*      MOCLDY    93  73  51 NW6       29.99S HX 102
GALLIANO*      PTCLDY    84  75  74 CALM      29.99S
NEW ROADS*     FAIR      91  75  59 CALM      29.98S HX 102
GONZALES*      FAIR      92  73  53 CALM      29.97S HX 101
HAMMOND*       SUNNY     95  66  38 NW6       29.98S HX  98
HOUMA*         SUNNY     86  77  74 SW5       29.99  HX  97
PORT FOURCHON* NOT AVBL

$$

LAZ041-044-053-054-190000-
SOUTHWEST LOUISIANA

CITY           SKY/WX    TMP DP  RH WIND       PRES   REMARKS
LAKE CHARLES   SUNNY     91  77  63 S8        29.96F HX 104
LAFAYETTE      SUNNY     95  70  44 W5        29.97S HX 101
PATTERSON      CLOUDY    87  79  76 SW5       29.99S HX 101
SALT POINT       N/A     90  77  65 VRB6      29.97F HX 103
NEW IBERIA     PTSUNNY   92  73  53 N7        29.98S HX 100
CHENAULT AIRPK MOSUNNY   90  79  70 SE5       29.97S HX 105

$$

LAZ027-028-190000-
CENTRAL LOUISIANA

CITY           SKY/WX    TMP DP  RH WIND       PRES   REMARKS
FORT POLK      SUNNY     93  72  50 SW7       29.96F HX 100
ALEXANDRIA INT SUNNY     91  74  57 W3        29.96S HX 100
ALEXANDRIA     MOSUNNY   93  77  59 NW3       29.97S HX 107

$$

LAZ001-002-190000-
NORTHWEST LOUISIANA

CITY           SKY/WX    TMP DP  RH WIND       PRES   REMARKS
SHREVEPORT     MOSUNNY   92  74  55 SW7       29.96F HX 101
BARKSDALE AFB  SUNNY     94  71  47 SW5       29.95F HX 101
DTN SHREVEPORT SUNNY     93  71  48 SW9       29.96F HX 100

$$

LAZ014-016-190000-
NORTHEAST LOUISIANA

CITY           SKY/WX    TMP DP  RH WIND       PRES   REMARKS
MONROE         MOSUNNY   93  73  52 W9        29.97R HX 102
TALLULAH       SUNNY     87  75  67 SE8       29.97R HX  96

$$





USA.gov is the U.S. government's official web portal to all federal, state and local government web resources and services.